Location: Agadir Mansour Mhndou
(31.2424°N, 8.7730°W)
Time: 19:07:00
(UTC+00:00)

USA 229 DEB - Pass Details

Date: 16 October 2021
Orbit: 944 x 1268 km, 63.4° (Epoch: 25 November)

Event Time Altitude Azimuth Distance (km) Brightness Sun altitude
Rises 19:35:42 0° 185° (S) 3,591 6.5 -20.8°
Reaches altitude 10° 19:38:23 10° 176° (S) 2,657 5.7 -21.3°
Enters shadow 19:42:50 34° 134° (SE) 1,534 4.1 -22.3°
